SCP
1 1 1 1 1 1 1 1 1 0 0 0 0 0 0 0 0 0 0 0 0 0
1 1 1 1 1 2 1 1 0 0 0 0 0 0 0 0 0 0 0 0 0 0
0 0 0 0 0 0 0 0 0 0 0 0 0 0 0 0 0 0 0 0 0 0
0 0 0 0 0 0 0 0 0 0 0 0 0 0 0 0 0 0 0 0 0 0
0 0 0 0 0 0 0 0 0 0 0 0 0 0 0 0 0 0 0 0 0 0
0 0 0 0 0 0 0 0 0 0 0 0 0 0 0 0 0 0 0 0 0 0
0 0 0 0 0 0 0 0 0 0 0 0 0 0 0 0 0 0 0 0 0 0
0 0 0 0 0 0 0 0 0 0 0 0 0 0 0 0 0 0 0 0 0 0
0 0 0 0 0 0 0 0 0 0 0 0 0 0 0 0 0 0 0 0 0 0
0 0 0 0 0 0 0 0 0 0 0 0 0 0 0 0 0 0 0 0 0 0
0 0 0 0 0 0 0 0 0 0 0 0 0 0 0 0 0 0 0 0 0 0
0 0 -0 0 0 0 0 0 0 0 0 0 0 0 0 0 0 0 0 0 0 0
0 0 0 -0 0 0 0 0 0 0 0 0 0 0 0 0 0 0 0 0 0 0
0 0 0 0 0 0 0 0 0 0 0 0 0 0 0 0 0 0 0 0 0 0
Wind_Speed_500mb
66 72 76 74 81 83 90 73 79 81 89 83 69 64 57 50 55 51 54 56 55 65
55 61 68 70 71 77 88 83 71 74 82 78 70 63 54 54 55 52 48 49 50 59
44 47 52 60 62 63 74 38 48 62 66 68 58 55 53 54 53 50 49 51 51 53
30 31 40 44 42 44 36 43 65 56 60 55 51 46 50 49 47 47 49 51 53 59
13 21 27 33 40 38 48 38 51 52 46 45 42 42 44 44 46 49 48 48 51 59
16 17 26 29 28 28 37 38 45 44 40 40 38 40 44 44 45 48 45 43 51 58
12 17 22 28 41 43 45 49 54 46 44 41 38 35 37 36 33 30 35 37 42 51
9 9 34 34 44 49 54 59 52 46 43 37 34 32 33 31 30 29 35 33 30 33
9 7 17 44 40 58 58 63 54 45 42 34 30 28 27 29 25 27 28 28 25 25
34 25 13 10 30 50 59 61 55 48 39 33 28 26 25 22 24 27 23 24 20 20
47 39 36 17 24 36 47 57 53 42 33 25 25 25 21 23 23 22 25 26 24 25
50 48 44 41 34 30 16 38 43 36 29 24 20 24 21 23 23 23 25 26 28 29
50 49 48 45 42 37 33 30 34 34 28 23 16 19 19 22 24 24 23 24 25 28
52 52 48 41 40 37 35 30 33 37 36 31 25 22 16 16 20 23 28 25 23 20
Wind_Direction_500mb
225 225 230 226 227 216 205 216 218 225 219 221 222 225 229 231 234 232 237 232 234 235
230 231 230 227 231 219 213 225 234 225 223 217 220 221 228 231 232 237 231 236 241 239
235 235 236 227 228 221 216 226 238 226 217 214 215 221 228 231 232 231 232 238 241 245
240 223 227 228 228 202 187 214 263 230 213 214 213 214 217 223 229 237 239 242 246 244
271 208 201 190 196 194 203 219 226 220 208 200 205 210 218 228 235 239 240 244 244 251
205 200 220 211 206 200 189 198 206 194 197 205 211 220 227 231 235 241 245 247 246 248
188 214 211 227 216 199 184 176 195 197 206 208 215 211 218 224 227 237 244 255 249 251
321 231 223 224 202 195 193 188 195 202 203 201 205 209 217 225 229 240 247 254 259 258
17 317 246 205 214 181 183 188 191 192 188 195 211 224 227 225 221 239 247 244 260 257
52 52 49 190 173 181 155 179 179 181 188 194 213 219 222 226 232 229 237 234 247 238
64 62 68 73 108 145 142 149 164 170 176 185 208 209 207 221 219 222 227 213 213 209
55 69 69 67 63 56 80 108 135 150 163 177 184 188 199 199 204 197 197 196 197 194
54 57 64 74 76 72 61 57 89 113 118 127 135 149 170 183 177 178 183 175 178 186
55 56 59 61 67 74 83 80 80 86 88 90 98 106 125 146 161 162 158 152 146 155
Wind_Speed_850mb
66 72 76 74 81 83 90 73 79 81 89 83 69 64 57 50 55 51 54 56 55 65
55 61 68 70 71 77 88 83 71 74 82 78 70 63 54 54 55 52 48 49 50 59
44 47 52 60 62 63 74 38 48 62 66 68 58 55 53 54 53 50 49 51 51 53
30 31 40 44 42 44 36 43 65 56 60 55 51 46 50 49 47 47 49 51 53 59
13 21 27 33 40 38 48 38 51 52 46 45 42 42 44 44 46 49 48 48 51 59
16 17 26 29 28 28 37 38 45 44 40 40 38 40 44 44 45 48 45 43 51 58
12 17 22 28 41 43 45 49 54 46 44 41 38 35 37 36 33 30 35 37 42 51
9 9 34 34 44 49 54 59 52 46 43 37 34 32 33 31 30 29 35 33 30 33
9 7 17 44 40 58 58 63 54 45 42 34 30 28 27 29 25 27 28 28 25 25
34 25 13 10 30 50 59 61 55 48 39 33 28 26 25 22 24 27 23 24 20 20
47 39 36 17 24 36 47 57 53 42 33 25 25 25 21 23 23 22 25 26 24 25
50 48 44 41 34 30 16 38 43 36 29 24 20 24 21 23 23 23 25 26 28 29
50 49 48 45 42 37 33 30 34 34 28 23 16 19 19 22 24 24 23 24 25 28
52 52 48 41 40 37 35 30 33 37 36 31 25 22 16 16 20 23 28 25 23 20
Wind_Direction_850mb
225 225 230 226 227 216 205 216 218 225 219 221 222 225 229 231 234 232 237 232 234 235
230 231 230 227 231 219 213 225 234 225 223 217 220 221 228 231 232 237 231 236 241 239
235 235 236 227 228 221 216 226 238 226 217 214 215 221 228 231 232 231 232 238 241 245
240 223 227 228 228 202 187 214 263 230 213 214 213 214 217 223 229 237 239 242 246 244
271 208 201 190 196 194 203 219 226 220 208 200 205 210 218 228 235 239 240 244 244 251
205 200 220 211 206 200 189 198 206 194 197 205 211 220 227 231 235 241 245 247 246 248
188 214 211 227 216 199 184 176 195 197 206 208 215 211 218 224 227 237 244 255 249 251
321 231 223 224 202 195 193 188 195 202 203 201 205 209 217 225 229 240 247 254 259 258
17 317 246 205 214 181 183 188 191 192 188 195 211 224 227 225 221 239 247 244 260 257
52 52 49 190 173 181 155 179 179 181 188 194 213 219 222 226 232 229 237 234 247 238
64 62 68 73 108 145 142 149 164 170 176 185 208 209 207 221 219 222 227 213 213 209
55 69 69 67 63 56 80 108 135 150 163 177 184 188 199 199 204 197 197 196 197 194
54 57 64 74 76 72 61 57 89 113 118 127 135 149 170 183 177 178 183 175 178 186
55 56 59 61 67 74 83 80 80 86 88 90 98 106 125 146 161 162 158 152 146 155